TimeEST,TemperatureF,Dew PointF,Humidity,Sea Level PressureIn,VisibilityMPH,Wind Direction,Wind SpeedMPH,Gust SpeedMPH,PrecipitationIn,Events,Conditions,WindDirDegrees,DateUTC
12:15 AM,62.6,62.6,100,30.32,7.0,ENE,5.8,-,N/A,,Clear,70,2012-03-08 05:15:00
12:35 AM,60.8,60.8,100,30.31,7.0,ENE,4.6,-,N/A,,Clear,60,2012-03-08 05:35:00
1:15 AM,62.6,62.6,100,30.31,7.0,NE,5.8,-,N/A,,Clear,50,2012-03-08 06:15:00
1:35 AM,62.6,62.6,100,30.30,6.0,ENE,6.9,-,N/A,,Clear,60,2012-03-08 06:35:00
1:55 AM,62.6,62.6,100,30.30,6.0,ENE,5.8,-,N/A,,Partly Cloudy,60,2012-03-08 06:55:00
2:15 AM,62.6,62.6,100,30.29,7.0,ENE,5.8,-,N/A,,Clear,70,2012-03-08 07:15:00
2:35 AM,62.6,62.6,100,30.28,6.0,East,4.6,-,N/A,,Clear,80,2012-03-08 07:35:00
2:55 AM,60.8,60.8,100,30.28,5.0,ENE,5.8,-,N/A,,Clear,60,2012-03-08 07:55:00
3:15 AM,60.8,60.8,100,30.27,5.0,ENE,5.8,-,N/A,,Clear,60,2012-03-08 08:15:00
3:35 AM,62.6,62.6,100,30.27,5.0,NE,5.8,-,N/A,,Clear,50,2012-03-08 08:35:00
3:55 AM,60.8,60.8,100,30.26,5.0,ENE,5.8,-,N/A,,Clear,60,2012-03-08 08:55:00
4:15 AM,62.6,62.6,100,30.26,5.0,ENE,6.9,-,N/A,,Clear,60,2012-03-08 09:15:00
4:35 AM,60.8,60.8,100,30.26,6.0,ENE,5.8,-,N/A,,Clear,70,2012-03-08 09:35:00
4:55 AM,60.8,60.8,100,30.26,5.0,ENE,5.8,-,N/A,,Clear,70,2012-03-08 09:55:00
5:15 AM,60.8,60.8,100,30.27,6.0,ENE,6.9,-,N/A,,Clear,70,2012-03-08 10:15:00
5:35 AM,62.6,62.6,100,30.27,6.0,ENE,6.9,-,N/A,,Clear,70,2012-03-08 10:35:00
5:55 AM,62.6,62.6,100,30.28,5.0,ENE,5.8,-,N/A,,Clear,60,2012-03-08 10:55:00
6:15 AM,60.8,60.8,100,30.29,5.0,ENE,5.8,-,N/A,,Clear,60,2012-03-08 11:15:00
6:35 AM,60.8,60.8,100,30.29,5.0,NE,5.8,-,N/A,,Clear,50,2012-03-08 11:35:00
7:15 AM,62.6,62.6,100,30.30,4.0,ENE,4.6,-,N/A,,Clear,60,2012-03-08 12:15:00
7:30 AM,62.6,62.6,100,30.31,7.0,ENE,4.6,-,N/A,,Clear,60,2012-03-08 12:30:00
7:50 AM,64.4,64.4,100,30.32,7.0,ENE,5.8,-,N/A,,Clear,70,2012-03-08 12:50:00
8:51 AM,69.8,64.4,83,30.32,12.0,East,10.4,-,N/A,,Clear,100,2012-03-08 13:51:00
9:50 AM,73.4,62.6,69,30.33,12.0,East,12.7,18.4,N/A,,Scattered Clouds,100,2012-03-08 14:50:00
10:55 AM,78.8,60.8,54,30.31,12.0,East,13.8,20.7,N/A,,Mostly Cloudy,100,2012-03-08 15:55:00
11:51 AM,78.8,60.8,54,30.30,12.0,East,11.5,-,N/A,,Mostly Cloudy,90,2012-03-08 16:51:00
12:50 PM,80.6,59.0,48,30.27,12.0,East,8.1,-,N/A,,Mostly Cloudy,90,2012-03-08 17:50:00
1:50 PM,82.4,60.8,48,30.23,12.0,ENE,9.2,-,N/A,,Mostly Cloudy,70,2012-03-08 18:50:00
3:15 PM,80.6,59.0,48,30.19,9.0,East,13.8,-,N/A,,Clear,100,2012-03-08 20:15:00
3:35 PM,80.6,59.0,48,30.18,9.0,East,13.8,-,N/A,,Clear,90,2012-03-08 20:35:00
3:55 PM,80.6,60.8,51,30.18,10.0,ENE,12.7,16.1,N/A,,Clear,70,2012-03-08 20:55:00
4:15 PM,80.6,60.8,51,30.18,9.0,ESE,16.1,19.6,N/A,,Clear,110,2012-03-08 21:15:00
4:35 PM,78.8,62.6,57,30.18,9.0,SE,12.7,-,N/A,,Clear,130,2012-03-08 21:35:00
4:55 PM,75.2,62.6,65,30.19,10.0,ESE,12.7,18.4,N/A,,Clear,120,2012-03-08 21:55:00
5:15 PM,77.0,62.6,61,30.19,9.0,SE,10.4,16.1,N/A,,Scattered Clouds,130,2012-03-08 22:15:00
5:35 PM,75.2,62.6,65,30.19,9.0,SE,12.7,-,N/A,,Partly Cloudy,130,2012-03-08 22:35:00
5:55 PM,75.2,62.6,65,30.19,9.0,SE,13.8,-,N/A,,Partly Cloudy,130,2012-03-08 22:55:00
6:15 PM,73.4,62.6,69,30.20,8.0,SE,11.5,17.3,N/A,,Partly Cloudy,140,2012-03-08 23:15:00
6:35 PM,73.4,62.6,69,30.21,9.0,SE,10.4,-,N/A,,Mostly Cloudy,130,2012-03-08 23:35:00
6:55 PM,71.6,62.6,73,30.21,10.0,SE,6.9,-,N/A,,Mostly Cloudy,130,2012-03-08 23:55:00
7:15 PM,71.6,62.6,73,30.21,10.0,ESE,8.1,-,N/A,,Mostly Cloudy,120,2012-03-09 00:15:00
7:35 PM,71.6,62.6,73,30.22,10.0,ESE,6.9,-,N/A,,Scattered Clouds,110,2012-03-09 00:35:00
7:55 PM,71.6,62.6,73,30.22,10.0,East,6.9,-,N/A,,Scattered Clouds,100,2012-03-09 00:55:00
8:15 PM,69.8,62.6,78,30.23,10.0,ESE,6.9,-,N/A,,Scattered Clouds,120,2012-03-09 01:15:00
8:35 PM,69.8,64.4,83,30.23,10.0,ESE,6.9,-,N/A,,Partly Cloudy,110,2012-03-09 01:35:00
8:55 PM,68.0,64.4,88,30.23,10.0,ESE,6.9,-,N/A,,Clear,110,2012-03-09 01:55:00
9:15 PM,68.0,64.4,88,30.24,10.0,East,4.6,-,N/A,,Scattered Clouds,100,2012-03-09 02:15:00
9:35 PM,68.0,64.4,88,30.23,10.0,ESE,5.8,-,N/A,,Scattered Clouds,110,2012-03-09 02:35:00
9:55 PM,68.0,64.4,88,30.23,10.0,ESE,4.6,-,N/A,,Scattered Clouds,120,2012-03-09 02:55:00
10:15 PM,68.0,64.4,88,30.23,10.0,ESE,6.9,-,N/A,,Scattered Clouds,120,2012-03-09 03:15:00
10:35 PM,68.0,64.4,88,30.23,9.0,ESE,6.9,-,N/A,,Partly Cloudy,120,2012-03-09 03:35:00
10:55 PM,68.0,64.4,88,30.23,8.0,SE,4.6,-,N/A,,Scattered Clouds,130,2012-03-09 03:55:00
11:15 PM,68.0,64.4,88,30.22,8.0,East,4.6,-,N/A,,Mostly Cloudy,100,2012-03-09 04:15:00
11:35 PM,68.0,64.4,88,30.22,9.0,ESE,5.8,-,N/A,,Mostly Cloudy,120,2012-03-09 04:35:00
11:55 PM,68.0,64.4,88,30.22,9.0,ESE,4.6,-,N/A,,Mostly Cloudy,120,2012-03-09 04:55:00